Location: Newark
(36.1358°N, 115.1208°W)
Time: 12:08:55
(UTC+00:00)

S-56A Canister/Altair - Pass Details

Date: 21 February 2020
Orbit: 634 x 2498 km, 38.9° (Epoch: 05 April)

Event Time Altitude Azimuth Distance (km) Brightness Sun altitude
Rises 02:36:28 0° 288° (WNW) 5,626 13.3 -14.8°
Reaches altitude 10° 02:41:29 10° 276° (W) 4,310 12.7 -15.8°
Maximum altitude 02:49:22 23° 231° (SW) 2,837 11.0 -17.4°
Drops below altitude 10° 02:55:24 10° 183° (S) 3,192 10.7 -18.6°
Sets 02:58:29 0° 168° (SSE) 3,882 11.0 -19.3°
